When you browse on this site, cookies collect data to enhance your experience and personalize the content and advertising you see.
Visit our Privacy Policy to learn more. By continuing to use the site, you agree to this use of cookies and data.
  • In United Kingdom
  • List of Countries
  • For 7 days
  • Water Temperature
  • Satellite Maps
  • Weather Map
  • Weather Widgets
  • user-avatar
    Login

    Hourly Weather Sharapanivka

    Today, 19 June, Wednesday

    Time Temperature Precipitation Wind Pressure Humidity
    00:00 +19°C° 0 mm 2 mps 742 mmHg 92%
    01:00 +19°C° 0 mm 2 mps 742 mmHg 93%
    02:00 +19°C° 0 mm 2 mps 742 mmHg 91%
    03:00 +19°C° 0 mm 2 mps 742 mmHg 91%
    04:00 +19°C° 0 mm 2 mps 742 mmHg 91%
    05:00 +18°C° 0 mm 2 mps 742 mmHg 91%
    06:00 +20°C° 0 mm 2 mps 742 mmHg 88%
    07:00 +21°C° 0 mm 3 mps 742 mmHg 85%
    08:00 +24°C° 0 mm 3 mps 742 mmHg 81%
    09:00 +25°C° 0 mm 3 mps 742 mmHg 77%
    10:00 +26°C° 0 mm 3 mps 742 mmHg 73%
    11:00 +27°C° 0 mm 3 mps 742 mmHg 69%
    12:00 +27°C° 0.3 mm 3 mps 742 mmHg 68%
    13:00 +28°C° 0.3 mm 3 mps 742 mmHg 67%
    14:00 +28°C° 0.3 mm 3 mps 741 mmHg 66%
    15:00 +28°C° 0.3 mm 3 mps 741 mmHg 67%
    16:00 +27°C° 0.3 mm 3 mps 741 mmHg 69%
    17:00 +27°C° 0.3 mm 3 mps 741 mmHg 70%
    18:00 +26°C° 0.3 mm 3 mps 741 mmHg 75%
    19:00 +25°C° 0.3 mm 2 mps 740 mmHg 80%
    20:00 +23°C° 0.3 mm 2 mps 740 mmHg 84%
    21:00 +21°C° 0 mm 2 mps 740 mmHg 86%
    22:00 +21°C° 0 mm 2 mps 741 mmHg 88%
    23:00 +20°C° 0 mm 2 mps 741 mmHg 90%

    Tomorrow, 20 June, Thursday

    Time Temperature Precipitation Wind Pressure Humidity
    00:00 +20°C° 0 mm 2 mps 741 mmHg 91%
    01:00 +19°C° 0 mm 2 mps 740 mmHg 92%
    02:00 +19°C° 0 mm 2 mps 740 mmHg 93%
    03:00 +19°C° 0 mm 2 mps 740 mmHg 93%
    04:00 +19°C° 0 mm 2 mps 740 mmHg 93%
    05:00 +19°C° 0 mm 2 mps 740 mmHg 93%
    06:00 +20°C° 0 mm 2 mps 740 mmHg 89%
    07:00 +23°C° 0 mm 2 mps 740 mmHg 85%
    08:00 +24°C° 0 mm 2 mps 740 mmHg 81%
    09:00 +26°C° 0 mm 2 mps 740 mmHg 76%
    10:00 +27°C° 0 mm 2 mps 740 mmHg 71%
    11:00 +28°C° 0 mm 3 mps 740 mmHg 66%
    12:00 +28°C° 0 mm 3 mps 740 mmHg 65%
    13:00 +28°C° 0 mm 3 mps 740 mmHg 63%
    14:00 +29°C° 0 mm 3 mps 740 mmHg 62%
    15:00 +29°C° 0 mm 3 mps 740 mmHg 63%
    16:00 +29°C° 0 mm 3 mps 740 mmHg 64%
    17:00 +28°C° 0 mm 3 mps 739 mmHg 66%
    18:00 +27°C° 0 mm 2 mps 739 mmHg 71%
    19:00 +26°C° 0 mm 2 mps 739 mmHg 76%
    20:00 +24°C° 0 mm 2 mps 739 mmHg 81%
    21:00 +23°C° 0 mm 2 mps 740 mmHg 84%
    22:00 +23°C° 0 mm 2 mps 740 mmHg 86%
    23:00 +21°C° 0 mm 2 mps 740 mmHg 88%

    Day after tomorrow, 21 June, Friday

    Time Temperature Precipitation Wind Pressure Humidity
    00:00 +21°C° 0 mm 2 mps 740 mmHg 88%
    01:00 +20°C° 0 mm 2 mps 740 mmHg 88%
    02:00 +20°C° 0 mm 2 mps 740 mmHg 87%
    03:00 +20°C° 0 mm 2 mps 740 mmHg 88%
    04:00 +20°C° 0 mm 2 mps 740 mmHg 88%
    05:00 +20°C° 0 mm 2 mps 740 mmHg 89%
    06:00 +21°C° 0 mm 2 mps 740 mmHg 85%
    07:00 +24°C° 0 mm 2 mps 741 mmHg 82%
    08:00 +25°C° 0 mm 2 mps 741 mmHg 78%
    09:00 +26°C° 0.7 mm 3 mps 741 mmHg 74%
    10:00 +27°C° 0.7 mm 3 mps 741 mmHg 70%
    11:00 +28°C° 0.7 mm 3 mps 741 mmHg 66%
    12:00 +28°C° 0.3 mm 3 mps 741 mmHg 66%
    13:00 +29°C° 0.3 mm 4 mps 741 mmHg 65%
    14:00 +29°C° 0.3 mm 4 mps 741 mmHg 64%
    15:00 +29°C° 0.5 mm 3 mps 741 mmHg 67%
    16:00 +28°C° 0.5 mm 3 mps 740 mmHg 69%
    17:00 +28°C° 0.5 mm 2 mps 740 mmHg 72%
    18:00 +27°C° 0.3 mm 2 mps 740 mmHg 75%
    19:00 +25°C° 0.3 mm 2 mps 740 mmHg 79%
    20:00 +24°C° 0.3 mm 2 mps 740 mmHg 82%
    21:00 +23°C° 0 mm 2 mps 740 mmHg 83%
    22:00 +23°C° 0 mm 2 mps 741 mmHg 84%
    23:00 +21°C° 0 mm 2 mps 741 mmHg 85%

    22 June, Saturday

    Time Temperature Precipitation Wind Pressure Humidity
    00:00 +21°C° 0.1 mm 2 mps 741 mmHg 85%
    01:00 +20°C° 0.1 mm 2 mps 741 mmHg 86%
    02:00 +20°C° 0.1 mm 2 mps 740 mmHg 87%
    03:00 +20°C° 0 mm 2 mps 740 mmHg 86%
    04:00 +20°C° 0 mm 2 mps 740 mmHg 85%
    05:00 +20°C° 0 mm 1 mps 740 mmHg 84%
    06:00 +21°C° 0 mm 2 mps 740 mmHg 77%
    07:00 +24°C° 0 mm 2 mps 740 mmHg 75%
    08:00 +26°C° 0 mm 3 mps 741 mmHg 72%
    09:00 +27°C° 0.6 mm 3 mps 741 mmHg 69%
    10:00 +28°C° 0.6 mm 3 mps 741 mmHg 66%
    11:00 +29°C° 0.6 mm 4 mps 741 mmHg 63%
    12:00 +30°C° 0.5 mm 4 mps 741 mmHg 61%
    13:00 +30°C° 0.5 mm 4 mps 741 mmHg 60%
    14:00 +30°C° 0.5 mm 4 mps 741 mmHg 59%
    15:00 +30°C° 0.2 mm 3 mps 740 mmHg 62%
    16:00 +30°C° 0.2 mm 3 mps 740 mmHg 65%
    17:00 +30°C° 0.2 mm 2 mps 740 mmHg 68%
    18:00 +28°C° 0.3 mm 3 mps 740 mmHg 72%
    19:00 +26°C° 0.3 mm 3 mps 740 mmHg 76%
    20:00 +23°C° 0.3 mm 4 mps 740 mmHg 81%
    21:00 +24°C° 0.2 mm 3 mps 740 mmHg 81%
    22:00 +23°C° 0.2 mm 2 mps 740 mmHg 81%
    23:00 +21°C° 0.2 mm 2 mps 740 mmHg 81%

    23 June, Sunday

    Time Temperature Precipitation Wind Pressure Humidity
    00:00 +21°C° 0 mm 2 mps 740 mmHg 81%
    01:00 +21°C° 0 mm 2 mps 740 mmHg 80%
    02:00 +20°C° 0 mm 2 mps 740 mmHg 79%
    03:00 +20°C° 0 mm 2 mps 740 mmHg 80%
    04:00 +20°C° 0 mm 2 mps 740 mmHg 80%
    05:00 +20°C° 0 mm 2 mps 740 mmHg 80%
    06:00 +22°C° 0 mm 3 mps 740 mmHg 77%
    07:00 +24°C° 0 mm 3 mps 740 mmHg 74%
    08:00 +26°C° 0 mm 3 mps 741 mmHg 72%
    09:00 +27°C° 0 mm 3 mps 741 mmHg 67%
    10:00 +29°C° 0 mm 3 mps 741 mmHg 62%
    11:00 +30°C° 0 mm 3 mps 741 mmHg 58%
    12:00 +30°C° 0 mm 4 mps 741 mmHg 56%
    13:00 +32°C° 0 mm 4 mps 740 mmHg 54%
    14:00 +32°C° 0 mm 4 mps 740 mmHg 52%
    15:00 +32°C° 0 mm 4 mps 740 mmHg 56%
    16:00 +31°C° 0 mm 3 mps 740 mmHg 60%
    17:00 +31°C° 0 mm 3 mps 740 mmHg 64%
    18:00 +29°C° 0 mm 3 mps 739 mmHg 67%
    19:00 +27°C° 0 mm 3 mps 739 mmHg 70%
    20:00 +25°C° 0 mm 3 mps 739 mmHg 73%
    21:00 +24°C° 0.2 mm 3 mps 739 mmHg 72%
    22:00 +23°C° 0.2 mm 2 mps 739 mmHg 71%
    23:00 +23°C° 0.2 mm 2 mps 740 mmHg 69%

    24 June, Monday

    Time Temperature Precipitation Wind Pressure Humidity
    00:00 +21°C° 0.3 mm 2 mps 740 mmHg 75%
    01:00 +20°C° 0.3 mm 2 mps 740 mmHg 81%
    02:00 +20°C° 0.3 mm 2 mps 740 mmHg 86%
    03:00 +20°C° 0.1 mm 2 mps 740 mmHg 86%
    04:00 +20°C° 0.1 mm 2 mps 740 mmHg 85%
    05:00 +20°C° 0.1 mm 2 mps 740 mmHg 85%
    06:00 +21°C° 0 mm 2 mps 740 mmHg 85%
    07:00 +21°C° 0 mm 2 mps 740 mmHg 86%
    08:00 +21°C° 0 mm 2 mps 741 mmHg 86%
    09:00 +23°C° 0.2 mm 2 mps 741 mmHg 85%
    10:00 +23°C° 0.2 mm 2 mps 741 mmHg 85%
    11:00 +23°C° 0.2 mm 2 mps 741 mmHg 84%
    12:00 +24°C° 1.1 mm 2 mps 741 mmHg 81%
    13:00 +25°C° 1.1 mm 2 mps 741 mmHg 77%
    14:00 +26°C° 1.1 mm 3 mps 741 mmHg 74%
    15:00 +26°C° 0.2 mm 3 mps 741 mmHg 76%
    16:00 +26°C° 0.2 mm 4 mps 741 mmHg 77%
    17:00 +25°C° 0.2 mm 5 mps 741 mmHg 79%
    18:00 +23°C° 1.4 mm 4 mps 741 mmHg 83%
    19:00 +22°C° 1.4 mm 3 mps 741 mmHg 86%
    20:00 +21°C° 1.4 mm 3 mps 742 mmHg 90%
    21:00 +20°C° 0 mm 3 mps 742 mmHg 91%
    22:00 +20°C° 0 mm 3 mps 742 mmHg 92%
    23:00 +19°C° 0 mm 4 mps 742 mmHg 94%
    Show more